Weather History for Namest Nad Oslav, Czech Republic

Change the Weather History Date:

Saturday, October 26, 2013

  Actual Average Record
Temperature  
Mean Temperature 52 °F -  
Max Temperature 55 °F - - ()
Min Temperature 50 °F - - ()
Degree Days  
Heating Degree Days 12    
Growing Degree Days 2 (Base 50)    
Moisture  
Dew Point 51 °F    
Average Humidity 98    
Maximum Humidity 100    
Minimum Humidity 88    
Precipitation  
Precipitation 0.00 in - - ()
Sea Level Pressure  
Sea Level Pressure 30.09 in    
Wind  
Wind Speed 2 mph ()    
Max Wind Speed 6 mph    
Max Gust Speed -    
Visibility 1.2 miles    
Events Fog    
T = Trace of Precipitation, MM = Missing Value Source: Averaged Metar Reports

Daily Weather History Graph

Daily Weather History Graph

Search for Another Location

Airport:

Trip Planner

Search our weather history database for the weather conditions in past years. The results will help you decide how hot, cold, wet, or windy it might be!

Date:

Astronomy

Oct. 26, 2013 Rise Set
Actual Time 7:33 AM CEST 5:44 PM CEST
Civil Twilight 7:00 AM CEST 6:17 PM CEST
Nautical Twilight 6:23 AM CEST 6:54 PM CEST
Astronomical Twilight 5:46 AM CEST 7:31 PM CEST
Moon 11:40 PM CEST (10/26) 1:45 PM CEST (10/26)
Length of Visible Light 11h 16m
Length of Day
10h 11m
Waning Gibbous, 55% of the Moon is Illuminated
Oct 26
Waning Gibbous
Oct 27
Last Quarter
Nov 3
New
Nov 10
First Quarter
Nov 17
Full

Hourly Weather History & Observations

Time (CEST) Temp. Dew Point Humidity Pressure Visibility Wind Dir Wind Speed Gust Speed Precip Events Conditions
12:00 AM 51.8 °F 51.8 °F 100% 30.09 in 0.8 mi Calm Calm - N/A   Overcast
1:00 AM 51.8 °F 51.8 °F 100% 30.09 in 0.8 mi SSE 3.5 mph - N/A   Overcast
2:00 AM 51.8 °F 51.8 °F 100% 30.09 in 1.2 mi Variable 1.2 mph - N/A   Overcast
3:00 AM 51.8 °F 50.0 °F 94% 30.09 in 0.9 mi Calm Calm - N/A   Overcast
4:00 AM 50.0 °F 50.0 °F 100% 30.06 in 0.6 mi Variable 1.2 mph - N/A   Overcast
5:00 AM 50.0 °F 50.0 °F 100% 30.09 in 0.4 mi Calm Calm - N/A Fog Fog
6:00 AM 50.0 °F 50.0 °F 100% 30.06 in 0.1 mi Variable 2.3 mph - N/A Fog Fog
7:00 AM 50.0 °F 50.0 °F 100% 30.06 in 0.1 mi Variable 2.3 mph - N/A Fog Fog
8:00 AM 50.0 °F 50.0 °F 100% 30.09 in 0.0 mi SSE 2.3 mph - N/A Fog Fog
9:00 AM 50.0 °F 50.0 °F 100% 30.09 in 0.0 mi SSW 3.5 mph - N/A Fog Fog
10:00 AM 50.0 °F 50.0 °F 100% 30.09 in 0.0 mi South 4.6 mph - N/A Fog Fog
11:00 AM 50.0 °F 50.0 °F 100% 30.12 in 0.5 mi SW 3.5 mph - N/A Fog Fog
12:00 PM 51.8 °F 51.8 °F 100% 30.12 in 0.8 mi ESE 5.8 mph - N/A   Mostly Cloudy
12:44 PM 51.8 °F 51.8 °F 100% 30.12 in 1.6 mi Variable 2.3 mph - N/A   Mostly Cloudy
1:00 PM 51.8 °F 51.8 °F 100% 30.12 in - South 4.6 mph - N/A   Mostly Cloudy
1:24 PM 53.6 °F 53.6 °F 100% 30.09 in 3.7 mi SE 4.6 mph - N/A   Mostly Cloudy
2:04 PM 55.4 °F 51.8 °F 88% 30.09 in 5.0 mi SE 5.8 mph - N/A   Scattered Clouds
3:00 PM 53.6 °F 51.8 °F 94% 30.09 in 6.2 mi ESE 3.5 mph - N/A   Scattered Clouds
4:00 PM 55.4 °F 51.8 °F 88% 30.09 in - ESE 3.5 mph - N/A   Clear
5:00 PM 53.6 °F 51.8 °F 94% 30.09 in - SE 5.8 mph - N/A   Clear
6:00 PM 51.8 °F 50.0 °F 94% 30.09 in - SSE 4.6 mph - N/A   Mist
7:00 PM 50.0 °F 50.0 °F 100% 30.09 in - Variable 2.3 mph - N/A   Mist
8:00 PM 50.0 °F 50.0 °F 100% 30.09 in 1.9 mi Calm Calm - N/A   Mist
8:47 PM 50.0 °F 50.0 °F 100% 30.12 in 0.3 mi Variable 2.3 mph - N/A Fog Fog
9:00 PM 50.0 °F 48.2 °F 94% 30.09 in 0.1 mi Variable 1.2 mph - N/A Fog Fog
10:00 PM 50.0 °F 50.0 °F 100% 30.09 in 0.4 mi Variable 2.3 mph - N/A Fog Fog
11:00 PM 50.0 °F 50.0 °F 100% 30.09 in 0.0 mi Variable 1.2 mph - N/A Fog Fog